This demonstration page uses our WeatherBlox Daily Observations layout. Learn more.

Left ArrowRight Arrow

Hourly Observations for November 7, 2015

Temp ( °F °C ) Dew Point ( °F °C ) Humidity (%) Winds ( mph kmh ) Pressure ( in mb ) Visibility ( mi km ) Precip ( " mm )
12:53 am 00:53 Clear 37 2.8 32 0 82 82 W 6 9 30.37 1029 10 16 0.00 0.00
1:53 am 01:53 Clear 36 2.2 32 0 86 86 W 6 9 30.38 1029 10 16 0.00 0.00
2:53 am 02:53 Clear 34 1.1 31 -0.6 89 89 W 7 11 30.39 1029 10 16 0.00 0.00
3:53 am 03:53 Clear 32 0 29 -1.7 88 88 W 5 7 30.40 1029 10 16 0.00 0.00
4:53 am 04:53 Clear 32 0 29 -1.7 88 88 W 7 11 30.41 1030 10 16 0.00 0.00
5:53 am 05:53 Clear 30 -1.1 27 -2.8 88 88 WSW 5 7 30.42 1030 10 16 0.00 0.00
6:53 am 06:53 Clear 30 -1.1 27 -2.8 88 88 W 7 11 30.43 1031 10 16 0.00 0.00
7:53 am 07:53 Sunny 31 -0.6 27 -2.8 85 85 W 7 11 30.44 1031 10 16 0.00 0.00
8:53 am 08:53 Sunny 36 2.2 31 -0.6 82 82 WNW 6 9 30.46 1031 10 16 0.00 0.00
9:53 am 09:53 Sunny 43 6.1 34 1.1 71 71 W 3 6 30.45 1031 10 16 0.00 0.00
10:53 am 10:53 Sunny 49 9.4 34 1.1 56 56 W 5 7 30.45 1031 10 16 0.00 0.00
11:53 am 11:53 Sunny 53 11.7 27 -2.8 37 37 WSW 6 9 30.45 1031 10 16 0.00 0.00
12:53 pm 12:53 Sunny 55 12.8 26 -3.3 33 33 W 10 17 30.42 1030 10 16 0.00 0.00
1:53 pm 13:53 Sunny 56 13.3 27 -2.8 33 33 SW 9 15 30.39 1029 10 16 0.00 0.00
2:53 pm 14:53 Sunny 56 13.3 26 -3.3 32 32 SW 9 15 30.37 1029 10 16 0.00 0.00
3:53 pm 15:53 Sunny 55 12.8 27 -2.8 34 34 WSW 8 13 30.37 1028 10 16 0.00 0.00
4:53 pm 16:53 Sunny 54 12.2 27 -2.8 35 35 SSW 7 11 30.36 1028 10 16 0.00 0.00
5:53 pm 17:53 Clear 49 9.4 27 -2.8 43 43 S 6 9 30.36 1028 10 16 0.00 0.00
6:53 pm 18:53 Clear 45 7.2 28 -2.2 52 52 S 6 9 30.37 1029 10 16 0.00 0.00
7:53 pm 19:53 Clear 43 6.1 28 -2.2 56 56 S 7 11 30.37 1028 10 16 0.00 0.00
8:53 pm 20:53 Clear 42 5.6 27 -2.8 55 55 S 7 11 30.36 1028 10 16 0.00 0.00
9:53 pm 21:53 Clear 40 4.4 27 -2.8 60 60 S 7 11 30.35 1028 10 16 0.00 0.00
10:53 pm 22:53 Clear 39 3.9 27 -2.8 62 62 S 7 11 30.34 1027 10 16 0.00 0.00
11:53 pm 23:53 Clear 39 3.9 27 -2.8 62 62 S 7 11 30.32 1027 10 16 0.00 0.00

Powered by AerisWeather